Grand Island, NE

10:52 PM CDT on August 29, 2016 (GMT -0500)
Central Nebraska Regional

Weather History for KGRI - May, 2013

Change the Weather History Date:

Tuesday, May 14, 2013

  Actual Average Record
Temperature  
Mean Temperature 83 °F 60 °F  
Max Temperature 102 °F 72 °F 102 °F (2013)
Min Temperature 63 °F 49 °F 28 °F (1953)
Degree Days  
Heating Degree Days 0 6  
Month to date heating degree days 161 107  
Since 1 July heating degree days 6087 6109  
Cooling Degree Days 18 1  
Month to date cooling degree days 22 14  
Year to date cooling degree days 28 25  
Growing Degree Days 32 (Base 50)    
Moisture  
Dew Point 48 °F    
Average Humidity 42    
Maximum Humidity 72    
Minimum Humidity 12    
Precipitation  
Precipitation T in 0.14 in 1.70 in (1963)
Month to date precipitation 1.19 1.84  
Year to date precipitation 7.79 7.38  
Snow  
Snow 0.00 in 0.00 in T in (1992)
Month to date snowfall 0.7 0.1  
Since 1 July snowfall 35.2 29.1  
Snow Depth 0.00 in    
Sea Level Pressure  
Sea Level Pressure 29.72 in    
Wind  
Wind Speed 12 mph (SW)    
Max Wind Speed 30 mph    
Max Gust Speed 36 mph    
Visibility 10 miles    
Events Rain    
T = Trace of Precipitation, MM = Missing Value Source: NWS Daily Summary

Daily Weather History Graph

Daily Weather History Graph

Search for Another Location

Airport or City:

Trip Planner

Search our weather history database for the weather conditions in past years. The results will help you decide how hot, cold, wet, or windy it might be!

Date:

Astronomy

May. 14, 2013 Rise Set
Actual Time 6:16 AM CDT 8:43 PM CDT
Civil Twilight 5:45 AM CDT 9:14 PM CDT
Nautical Twilight 5:06 AM CDT 9:53 PM CDT
Astronomical Twilight 4:23 AM CDT 10:36 PM CDT
Moon 9:57 AM CDT (5/14) No Moon Set
Length of Visible Light 15h 29m
Length of Day
14h 27m
Waxing Crescent, 19% of the Moon is Illuminated
May 14
Waxing Crescent
May 17
First Quarter
May 24
Full
May 31
Last Quarter
Jun 8
New

Hourly Weather History & Observations

Time (CDT) Temp. Dew Point Humidity Pressure Visibility Wind Dir Wind Speed Gust Speed Precip Events Conditions
12:53 AM 70.0 °F 55.0 °F 59% 29.82 in 10.0 mi SSW 11.5 mph - N/A   Clear
1:53 AM 68.0 °F 55.0 °F 63% 29.80 in 10.0 mi SW 11.5 mph - N/A   Clear
2:53 AM 68.0 °F 54.0 °F 61% 29.78 in 10.0 mi SW 13.8 mph - N/A   Clear
3:53 AM 66.0 °F 54.0 °F 65% 29.76 in 10.0 mi SW 10.4 mph - N/A   Clear
4:53 AM 64.0 °F 54.0 °F 70% 29.76 in 10.0 mi SW 9.2 mph - N/A   Clear
5:53 AM 63.0 °F 53.1 °F 70% 29.75 in 10.0 mi SW 10.4 mph - N/A   Clear
6:53 AM 64.9 °F 52.0 °F 63% 29.75 in 10.0 mi WSW 9.2 mph - N/A   Clear
7:53 AM 69.1 °F 52.0 °F 54% 29.75 in 10.0 mi WSW 10.4 mph - N/A   Clear
8:53 AM 77.0 °F 51.1 °F 40% 29.74 in 10.0 mi WSW 9.2 mph - N/A   Clear
9:53 AM 82.9 °F 52.0 °F 34% 29.73 in 10.0 mi WSW 9.2 mph - N/A   Clear
10:53 AM 91.0 °F 48.9 °F 23% 29.71 in 10.0 mi SW 11.5 mph - N/A   Clear
11:53 AM 97.0 °F 46.9 °F 18% 29.69 in 10.0 mi SSW 13.8 mph - N/A   Clear
12:53 PM 100.0 °F 39.0 °F 12% 29.68 in 10.0 mi SSW 18.4 mph 28.8 mph N/A   Clear
1:53 PM 100.9 °F 39.0 °F 12% 29.65 in 10.0 mi SW 17.3 mph 25.3 mph N/A   Clear
2:53 PM 99.0 °F 41.0 °F 14% 29.64 in 10.0 mi SW 17.3 mph - N/A   Clear
3:53 PM 100.0 °F 44.1 °F 15% 29.62 in 10.0 mi SSW 17.3 mph 24.2 mph N/A   Clear
4:53 PM 91.9 °F 45.0 °F 20% 29.63 in 10.0 mi SSW 15.0 mph 25.3 mph 0.00 in Rain Light Rain
5:53 PM 90.0 °F 42.1 °F 19% 29.64 in 10.0 mi SSW 25.3 mph 33.4 mph 0.00 in   Clear
6:53 PM 89.1 °F 43.0 °F 20% 29.66 in 10.0 mi South 12.7 mph - N/A   Clear
7:53 PM 84.0 °F 46.9 °F 27% 29.68 in 10.0 mi WSW 10.4 mph - N/A   Clear
8:53 PM 79.0 °F 48.9 °F 35% 29.69 in 9.0 mi WNW 5.8 mph - N/A   Clear
9:53 PM 80.1 °F 48.9 °F 34% 29.72 in 10.0 mi North 10.4 mph - N/A   Clear
10:53 PM 77.0 °F 48.0 °F 36% 29.75 in 10.0 mi NNE 12.7 mph - N/A   Clear
11:53 PM 70.0 °F 46.9 °F 44% 29.77 in 10.0 mi NE 6.9 mph - N/A   Clear